This demonstration page uses our WeatherBlox Daily Observations layout. Learn more.

Left ArrowRight Arrow

Hourly Observations for May 23, 2020

Temp ( °F °C ) Dew Point ( °F °C ) Humidity (%) Winds ( mph kmh ) Pressure ( in mb ) Visibility ( mi km ) Precip ( " mm )
12:51 am 00:51 Clear 73 22.8 23 -5 15 15 NW 13 20 29.69 1005 10 16.0934 0 0
1:51 am 01:51 Clear 73 22.8 26 -3.3 17 17 WNW 17 28 29.68 1005 10 16.0934 0 0
2:51 am 02:51 Clear 65 18.3 23 -5 20 20 SSE 3 6 29.71 1006 10 16.0934 0 0
3:51 am 03:51 Clear 64 17.8 25 -3.9 23 23 S 3 6 29.71 1006 10 16.0934 0 0
4:51 am 04:51 Clear 58 14.4 22 -5.6 25 25 E 6 9 29.74 1007 10 16.0934 0 0
5:51 am 05:51 Sunny 59 15 23 -5 25 25 SE 5 7 29.75 1007 10 16.0934 0 0
6:51 am 06:51 Sunny 67 19.4 26 -3.3 21 21 ESE 7 11 29.75 1008 10 16.0934 0 0
7:51 am 07:51 Sunny 74 23.3 28 -2.2 18 18 SSE 6 9 29.75 1008 10 16.0934 0 0
8:51 am 08:51 Sunny 76 24.4 29 -1.7 18 18 SW 5 7 29.75 1008 10 16.0934 0 0
9:51 am 09:51 Sunny 81 27.2 29 -1.7 15 15 NNW 3 6 29.72 1007 10 16.0934 0 0
10:51 am 10:51 Sunny 82 27.8 28 -2.2 14 14 S 3 6 29.72 1006 10 16.0934 0 0
11:51 am 11:51 Sunny 83 28.3 26 -3.3 12 12 Calm 29.7 1006 10 16.0934 0 0
12:51 pm 12:51 Sunny 85 29.4 24 -4.4 11 11 WSW 7 11 29.67 1005 10 16.0934 0 0
1:51 pm 13:51 Sunny 87 30.6 23 -5 9 9 SW 6 9 29.65 1004 10 16.0934 0 0
2:51 pm 14:51 Sunny 90 32.2 23 -5 9 9 VRB 3 6 29.63 1003 10 16.0934 0 0
3:51 pm 15:51 Sunny 91 32.8 22 -5.6 8 8 VRB 3 6 29.61 1003 10 16.0934 0 0
4:51 pm 16:51 Sunny 90 32.2 22 -5.6 8 8 W 17 28 29.62 1003 10 16.0934 0 0
5:51 pm 17:51 Sunny 87 30.6 23 -5 9 9 W 10 17 29.62 1003 10 16.0934 0 0
6:51 pm 18:51 Sunny 85 29.4 24 -4.4 11 11 WNW 15 24 29.62 1003 10 16.0934 0 0
7:51 pm 19:51 Clear 82 27.8 22 -5.6 11 11 NW 15 24 29.63 1004 10 16.0934 0 0
8:51 pm 20:51 Clear 80 26.7 22 -5.6 11 11 NW 16 26 29.65 1004 10 16.0934 0 0
9:51 pm 21:51 Clear 78 25.6 22 -5.6 12 12 WNW 15 24 29.66 1005 10 16.0934 0 0
10:51 pm 22:51 Clear 77 25 22 -5.6 13 13 WNW 17 28 29.68 1005 10 16.0934 0 0
11:51 pm 23:51 Clear 74 23.3 22 -5.6 14 14 WNW 12 19 29.69 1005 10 16.0934 0 0

Powered by AerisWeather